| time (UTC) | temp C | wind direction | speed KPH | gust KPH | rain 1hr cm | rain 24hr cm | rain mn cm | humidity % | barometer mb |
| 20260509161009 | 21 | 106 | 0.0 | 0.0 | 0.00 | 0.00 | 0.00 | 48 | 1018.2 |
| 20260509160010 | 20 | 106 | 0.0 | 0.0 | 0.00 | 0.00 | 0.00 | 53 | 1018.1 |
| 20260509155009 | 20 | 106 | 0.0 | 0.0 | 0.00 | 0.00 | 0.00 | 55 | 1018.2 |
| 20260509154011 | 19 | 106 | 0.0 | 0.0 | 0.00 | 0.00 | 0.00 | 60 | 1018.1 |
| 20260509153011 | 18 | 106 | 0.0 | 0.0 | 0.00 | 0.00 | 0.00 | 66 | 1018.1 |
| 20260509152010 | 17 | 106 | 0.0 | 0.0 | 0.00 | 0.00 | 0.00 | 73 | 1018.0 |
| 20260509151010 | 15 | 106 | 0.0 | 0.0 | 0.00 | 0.00 | 0.00 | 80 | 1017.9 |
| 20260509150009 | 13 | 106 | 0.0 | 0.0 | 0.00 | 0.00 | 0.00 | 87 | 1017.8 |
| 20260509145010 | 13 | 106 | 0.0 | 0.0 | 0.00 | 0.00 | 0.00 | 92 | 1017.8 |
| 20260509144010 | 12 | 106 | 0.0 | 0.0 | 0.00 | 0.00 | 0.00 | 100 | 1017.7 |
| 20260509143009 | 12 | 106 | 0.0 | 0.0 | 0.00 | 0.00 | 0.00 | 100 | 1017.7 |
| 20260509142010 | 11 | 106 | 0.0 | 0.0 | 0.00 | 0.00 | 0.00 | 100 | 1017.7 |
| 20260509141010 | 11 | 106 | 0.0 | 0.0 | 0.00 | 0.00 | 0.00 | 100 | 1017.5 |
| 20260509140009 | 11 | 106 | 0.0 | 0.0 | 0.00 | 0.00 | 0.00 | 100 | 1017.3 |
| 20260509134009 | 10 | 106 | 0.0 | 0.0 | 0.00 | 0.00 | 0.00 | 100 | 1017.3 |
| 20260509133010 | 10 | 106 | 0.0 | 0.0 | 0.00 | 0.00 | 0.00 | 100 | 1017.3 |
| 20260509132010 | 10 | 106 | 0.0 | 0.0 | 0.00 | 0.00 | 0.00 | 100 | 1017.3 |
| 20260509131010 | 10 | 106 | 0.0 | 0.0 | 0.00 | 0.00 | 0.00 | 100 | 1017.3 |
| 20260509130010 | 10 | 106 | 0.0 | 0.0 | 0.00 | 0.00 | 0.00 | 100 | 1017.2 |
| 20260509125010 | 10 | 106 | 0.0 | 0.0 | 0.00 | 0.00 | 0.00 | 100 | 1017.2 |
| 20260509124010 | 10 | 106 | 0.0 | 0.0 | 0.00 | 0.00 | 0.00 | 100 | 1017.2 |
| 20260509123010 | 10 | 106 | 0.0 | 0.0 | 0.00 | 0.00 | 0.00 | 100 | 1017.2 |
| 20260509122010 | 10 | 106 | 0.0 | 0.0 | 0.00 | 0.00 | 0.00 | 100 | 1017.2 |
| 20260509121010 | 10 | 106 | 0.0 | 0.0 | 0.00 | 0.00 | 0.00 | 100 | 1017.2 |
| 20260509115010 | 10 | 106 | 0.0 | 0.0 | 0.00 | 0.00 | 0.00 | 100 | 1017.3 |
| 20260509114010 | 10 | 106 | 0.0 | 0.0 | 0.00 | 0.00 | 0.00 | 100 | 1017.3 |
| 20260509112010 | 10 | 106 | 0.0 | 0.0 | 0.00 | 0.00 | 0.00 | 100 | 1017.3 |
| 20260509111010 | 11 | 106 | 0.0 | 0.0 | 0.00 | 0.00 | 0.00 | 100 | 1017.2 |
| 20260509110009 | 11 | 106 | 0.0 | 0.0 | 0.00 | 0.00 | 0.00 | 100 | 1017.3 |
| 20260509105009 | 11 | 106 | 0.0 | 0.0 | 0.00 | 0.00 | 0.00 | 100 | 1017.3 |
| 20260509104009 | 11 | 106 | 0.0 | 0.0 | 0.00 | 0.00 | 0.00 | 99 | 1017.3 |
| 20260509103009 | 11 | 106 | 0.0 | 0.0 | 0.00 | 0.00 | 0.00 | 98 | 1017.3 |
| 20260509102010 | 11 | 106 | 0.0 | 0.0 | 0.00 | 0.00 | 0.00 | 98 | 1017.4 |
| 20260509101010 | 11 | 106 | 0.0 | 0.0 | 0.00 | 0.00 | 0.00 | 97 | 1017.5 |
| 20260509100009 | 11 | 106 | 0.0 | 0.0 | 0.00 | 0.00 | 0.00 | 97 | 1017.5 |
| 20260509095009 | 11 | 106 | 0.0 | 0.0 | 0.00 | 0.00 | 0.00 | 97 | 1017.5 |
| 20260509094009 | 11 | 106 | 0.0 | 0.0 | 0.00 | 0.00 | 0.00 | 97 | 1017.5 |
| 20260509093010 | 11 | 106 | 0.0 | 0.0 | 0.00 | 0.00 | 0.00 | 97 | 1017.5 |
| 20260509092014 | 11 | 106 | 0.0 | 0.0 | 0.00 | 0.00 | 0.00 | 97 | 1017.5 |
| 20260509091009 | 11 | 106 | 0.0 | 0.0 | 0.00 | 0.00 | 0.00 | 96 | 1017.7 |
| 20260509090009 | 11 | 106 | 0.0 | 0.0 | 0.00 | 0.00 | 0.00 | 96 | 1017.8 |
| 20260509085009 | 11 | 106 | 0.0 | 0.0 | 0.00 | 0.00 | 0.00 | 96 | 1017.8 |
| 20260509084009 | 11 | 106 | 0.0 | 0.0 | 0.00 | 0.00 | 0.00 | 96 | 1017.7 |
| 20260509083010 | 12 | 106 | 0.0 | 0.0 | 0.00 | 0.00 | 0.00 | 95 | 1017.8 |
| 20260509082010 | 12 | 106 | 0.0 | 0.0 | 0.00 | 0.00 | 0.00 | 94 | 1018.0 |
| 20260509081010 | 12 | 106 | 0.0 | 9.7 | 0.00 | 0.00 | 0.00 | 94 | 1018.0 |
| 20260509080009 | 12 | 117 | 0.0 | 0.0 | 0.00 | 0.00 | 0.00 | 94 | 1018.1 |
| 20260509074010 | 12 | 117 | 0.0 | 0.0 | 0.00 | 0.00 | 0.00 | 93 | 1018.1 |
| 20260509073010 | 12 | 117 | 0.0 | 3.2 | 0.00 | 0.00 | 0.00 | 93 | 1018.2 |
| 20260509072010 | 12 | 109 | 0.0 | 0.0 | 0.00 | 0.00 | 0.00 | 93 | 1018.2 |
| 20260509071009 | 12 | 109 | 0.0 | 0.0 | 0.00 | 0.00 | 0.00 | 93 | 1018.2 |
| 20260509070010 | 12 | 109 | 0.0 | 8.0 | 0.00 | 0.00 | 0.00 | 93 | 1018.3 |
| 20260509064009 | 12 | 136 | 0.0 | 4.8 | 0.00 | 0.00 | 0.00 | 93 | 1018.4 |
| 20260509063010 | 12 | 136 | 0.0 | 4.8 | 0.00 | 0.00 | 0.00 | 92 | 1018.4 |
| 20260509062011 | 12 | 136 | 0.0 | 8.0 | 0.00 | 0.00 | 0.00 | 92 | 1018.4 |
| 20260509061009 | 12 | 151 | 0.0 | 0.0 | 0.00 | 0.00 | 0.00 | 90 | 1018.4 |
| 20260509055010 | 13 | 151 | 0.0 | 0.0 | 0.00 | 0.00 | 0.00 | 87 | 1018.5 |
| 20260509054009 | 13 | 151 | 0.0 | 0.0 | 0.00 | 0.00 | 0.00 | 86 | 1018.6 |
| 20260509053010 | 13 | 151 | 0.0 | 0.0 | 0.00 | 0.00 | 0.00 | 84 | 1018.6 |
| 20260509052009 | 13 | 151 | 0.0 | 0.0 | 0.00 | 0.00 | 0.00 | 82 | 1018.6 |
| 20260509051010 | 14 | 151 | 0.0 | 4.8 | 0.00 | 0.00 | 0.00 | 80 | 1018.6 |
| 20260509045009 | 15 | 8 | 0.0 | 0.0 | 0.00 | 0.00 | 0.00 | 76 | 1018.6 |
| 20260509044010 | 15 | 8 | 0.0 | 0.0 | 0.00 | 0.00 | 0.00 | 74 | 1018.6 |
| 20260509043009 | 15 | 8 | 0.0 | 0.0 | 0.00 | 0.00 | 0.00 | 72 | 1018.6 |
| 20260509042010 | 16 | 8 | 0.0 | 0.0 | 0.00 | 0.00 | 0.00 | 69 | 1018.6 |
| 20260509041010 | 16 | 8 | 0.0 | 0.0 | 0.00 | 0.00 | 0.00 | 67 | 1018.5 |
| 20260509040010 | 17 | 8 | 0.0 | 0.0 | 0.00 | 0.00 | 0.00 | 65 | 1018.5 |
| 20260509033009 | 18 | 8 | 0.0 | 0.0 | 0.00 | 0.00 | 0.00 | 57 | 1018.5 |
| 20260509032009 | 19 | 8 | 0.0 | 0.0 | 0.00 | 0.00 | 0.00 | 54 | 1018.5 |
| 20260509030009 | 20 | 8 | 0.0 | 0.0 | 0.00 | 0.00 | 0.00 | 51 | 1018.5 |
| 20260509025010 | 20 | 8 | 0.0 | 0.0 | 0.00 | 0.00 | 0.00 | 50 | 1018.6 |
| 20260509024010 | 21 | 8 | 0.0 | 0.0 | 0.00 | 0.00 | 0.00 | 48 | 1018.6 |
| 20260509023011 | 22 | 8 | 0.0 | 0.0 | 0.00 | 0.00 | 0.00 | 47 | 1018.5 |
| 20260509022010 | 22 | 8 | 0.0 | 0.0 | 0.00 | 0.00 | 0.00 | 46 | 1018.5 |
| 20260509021010 | 22 | 8 | 0.0 | 0.0 | 0.00 | 0.00 | 0.00 | 46 | 1018.5 |
| 20260509020010 | 23 | 8 | 0.0 | 9.7 | 0.00 | 0.00 | 0.00 | 44 | 1018.5 |
| 20260509015009 | 23 | 281 | 1.6 | 8.0 | 0.00 | 0.00 | 0.00 | 43 | 1018.5 |
| 20260509014010 | 23 | 291 | 1.6 | 11.3 | 0.00 | 0.00 | 0.00 | 42 | 1018.6 |
| 20260509013010 | 23 | 311 | 0.0 | 8.0 | 0.00 | 0.00 | 0.00 | 41 | 1018.8 |
| 20260509012010 | 24 | 261 | 0.0 | 9.7 | 0.00 | 0.00 | 0.00 | 40 | 1018.9 |
| 20260509011010 | 24 | 342 | 0.0 | 12.9 | 0.00 | 0.00 | 0.00 | 38 | 1018.8 |
| 20260509010009 | 24 | 271 | 0.0 | 9.7 | 0.00 | 0.00 | 0.00 | 37 | 1018.8 |
| 20260509005009 | 24 | 322 | 1.6 | 12.9 | 0.00 | 0.00 | 0.00 | 36 | 1018.8 |
| 20260509004010 | 25 | 317 | 6.4 | 14.5 | 0.00 | 0.00 | 0.00 | 34 | 1018.9 |
| 20260509003010 | 25 | 37 | 0.0 | 14.5 | 0.00 | 0.00 | 0.00 | 32 | 1019.0 |
| 20260508235010 | 26 | 31 | 3.2 | 11.3 | 0.00 | 0.00 | 0.00 | 26 | 1019.2 |
| 20260508234010 | 26 | 333 | 0.0 | 0.0 | 0.00 | 0.00 | 0.00 | 30 | 1019.1 |
| 20260508233010 | 26 | 333 | 1.6 | 12.9 | 0.00 | 0.00 | 0.00 | 29 | 1019.3 |
| 20260508232010 | 26 | 308 | 3.2 | 16.1 | 0.00 | 0.00 | 0.00 | 31 | 1019.3 |
| 20260508230009 | 26 | 322 | 3.2 | 11.3 | 0.00 | 0.00 | 0.00 | 30 | 1019.6 |
| 20260508225009 | 26 | 351 | 3.2 | 19.3 | 0.00 | 0.00 | 0.00 | 33 | 1019.6 |
| 20260508223010 | 27 | 321 | 8.0 | 14.5 | 0.00 | 0.00 | 0.00 | 31 | 1019.9 |
| 20260508222009 | 26 | 256 | 0.0 | 11.3 | 0.00 | 0.00 | 0.00 | 31 | 1020.0 |
| 20260508221011 | 26 | 99 | 1.6 | 14.5 | 0.00 | 0.00 | 0.00 | 33 | 1020.0 |
| 20260508220009 | 26 | 98 | 1.6 | 11.3 | 0.00 | 0.00 | 0.00 | 32 | 1020.1 |
| 20260508215010 | 26 | 260 | 3.2 | 12.9 | 0.00 | 0.00 | 0.00 | 32 | 1020.2 |
| 20260508214009 | 26 | 347 | 4.8 | 16.1 | 0.00 | 0.00 | 0.00 | 33 | 1020.3 |
| 20260508213009 | 26 | 359 | 8.0 | 16.1 | 0.00 | 0.00 | 0.00 | 30 | 1020.4 |
| 20260508212010 | 26 | 311 | 6.4 | 20.9 | 0.00 | 0.00 | 0.00 | 32 | 1020.4 |
| 20260508211010 | 26 | 1 | 9.7 | 20.9 | 0.00 | 0.00 | 0.00 | 29 | 1020.5 |
| 20260508204010 | 26 | 342 | 9.7 | 19.3 | 0.00 | 0.00 | 0.00 | 30 | 1020.5 |
| 20260508202010 | 25 | 350 | 9.7 | 19.3 | 0.00 | 0.00 | 0.00 | 37 | 1020.5 |
| 20260508201011 | 25 | 341 | 11.3 | 22.5 | 0.00 | 0.00 | 0.00 | 38 | 1020.5 |
| 20260508200010 | 25 | 0 | 4.8 | 20.9 | 0.00 | 0.00 | 0.00 | 38 | 1020.5 |
| 20260508195010 | 25 | 338 | 4.8 | 14.5 | 0.00 | 0.00 | 0.00 | 41 | 1020.5 |
| 20260508194009 | 25 | 354 | 4.8 | 19.3 | 0.00 | 0.00 | 0.00 | 45 | 1020.5 |
| 20260508192009 | 25 | 300 | 11.3 | 19.3 | 0.00 | 0.00 | 0.00 | 44 | 1020.7 |
| 20260508191010 | 25 | 11 | 8.0 | 20.9 | 0.00 | 0.00 | 0.00 | 44 | 1020.6 |
| 20260508185009 | 25 | 11 | 0.0 | 14.5 | 0.00 | 0.00 | 0.00 | 42 | 1020.8 |
| 20260508184009 | 25 | 302 | 4.8 | 14.5 | 0.00 | 0.00 | 0.00 | 41 | 1020.8 |
| 20260508182009 | 25 | 322 | 1.6 | 11.3 | 0.00 | 0.00 | 0.00 | 41 | 1020.8 |
| 20260508180009 | 24 | 311 | 4.8 | 16.1 | 0.00 | 0.00 | 0.00 | 43 | 1020.8 |
| 20260508175009 | 24 | 0 | 1.6 | 16.1 | 0.00 | 0.00 | 0.00 | 43 | 1020.8 |
| 20260508174009 | 24 | 2 | 3.2 | 14.5 | 0.00 | 0.00 | 0.00 | 41 | 1020.7 |
| 20260508173009 | 25 | 334 | 8.0 | 14.5 | 0.00 | 0.00 | 0.00 | 39 | 1020.7 |
| 20260508172009 | 24 | 358 | 1.6 | 11.3 | 0.00 | 0.00 | 0.00 | 37 | 1020.6 |
| 20260508171009 | 25 | 340 | 3.2 | 12.9 | 0.00 | 0.00 | 0.00 | 37 | 1020.7 |
| 20260508170009 | 25 | 99 | 0.0 | 0.0 | 0.00 | 0.00 | 0.00 | 34 | 1020.6 |
| 20260508165009 | 24 | 99 | 0.0 | 3.2 | 0.00 | 0.00 | 0.00 | 37 | 1020.6 |
| 20260508164009 | 23 | 160 | 0.0 | 0.0 | 0.00 | 0.00 | 0.00 | 42 | 1020.5 |